Home   Weather   Camrose   Past weeks

Flag for Canada Past Weather in Camrose, Alberta, Canada — Yesterday and Last 2 Weeks

Now
52 °F

Passing clouds.


Feels Like: 50 °F
Forecast: 31 / 54 °F
Wind: 6 mph from Northwest

Location: Edmonton International

Current Time: Sep 27, 2016 at 7:45:05 PM

Latest Report: Sep 27, 2016 at 7:00 PM


Visibility: 15 mi

Pressure: 30.19 "Hg (27.61 "Hg at 744m altitude)

Humidity: 41%

Dew Point: 28 °F

Location of CamroseLocation

Past Weather in Camrose — Graph

°F

Camrose Temperature Yesterday

Maximum temperature yesterday: 77 °F (at 3:00 PM)
Minimum temperature yesterday: 39 °F (at 12:00 AM)
Average temperature yesterday: 56 °F

High & Low Weather Summary for the Past Weeks

 TemperatureHumidityPressure
High77 °F (Sep 16, 3:00 PM)100% (Sep 16, 7:00 AM)30.32 "Hg (Sep 16, 7:00 AM)
Low28 °F (Sep 21, 6:00 AM)26% (Sep 16, 5:00 PM)29.48 "Hg (Sep 17, 8:50 PM)
Average51 °F68%29.99 "Hg
* Reported Sep 12 6:00 PM — Sep 27 6:00 PM, Camrose, Weather by CustomWeather, © 2016

Note: Actual official high and low records may vary slightly from our data, if they occured in-between our weather recording intervals... More about our weather records

Advertising

Camrose Weather History for the Previous 24 Hours

Scroll right to see more
 ConditionsComfort  
Time TempWeatherWind HumidityBarometerVisibility
6:00 PM
Tue, Sep 27
59 °FPassing clouds.13 mph34%30.17 "Hg15 mi
5:00 PM59 °FPassing clouds.10 mph34%30.16 "Hg15 mi
4:00 PM59 °FScattered clouds.13 mph34%30.14 "Hg15 mi
3:00 PM55 °FPartly sunny.13 mph41%30.13 "Hg15 mi
2:00 PM55 °FPartly sunny.15 mph41%30.10 "Hg15 mi
1:00 PM54 °FPartly sunny.12 mph51%30.08 "Hg15 mi
12:00 PM54 °FPartly sunny.12 mph54%30.09 "Hg15 mi
11:00 AM54 °FBroken clouds.18 mph47%30.04 "Hg15 mi
10:00 AM55 °FBroken clouds.17 mph51%30.03 "Hg15 mi
9:00 AM54 °FPartly sunny.16 mph58%30.00 "Hg15 mi
8:00 AM54 °FPartly sunny.17 mph63%29.94 "Hg15 mi
7:00 AM54 °FPartly cloudy.16 mph67%29.86 "Hg15 mi
6:00 AM50 °FPartly cloudy.7 mph71%29.80 "Hg15 mi
5:00 AM45 °FPassing clouds.3 mph76%29.75 "Hg15 mi
4:00 AM45 °FPassing clouds.3 mph76%29.74 "Hg15 mi
3:00 AM46 °FPassing clouds.3 mph71%29.75 "Hg15 mi
2:00 AM52 °FPartly cloudy.5 mph62%29.75 "Hg15 mi
1:00 AM54 °FPartly cloudy.10 mph58%29.75 "Hg15 mi
12:00 AM52 °FPassing clouds.10 mph62%29.76 "Hg15 mi
11:00 PM
Mon, Sep 26
55 °FPassing clouds.12 mph59%29.79 "Hg15 mi
10:00 PM54 °FPassing clouds.7 mph63%29.83 "Hg15 mi
9:00 PM57 °FPassing clouds.9 mph55%29.84 "Hg15 mi
8:00 PM54 °FPassing clouds.8 mph58%29.88 "Hg15 mi
7:00 PM63 °FScattered clouds.8 mph49%29.87 "Hg15 mi
Weather by CustomWeather, © 2016

See weather overviewHow to use our weather pages